Temperature
30 29 28 28 29 29 29 29 29 29 29 28 28 27 26 26 25 24 23 23 22 21 20 19 19 18 18 17 17 17 16 16 16 16 15 15 15 15 15 15 15 15 15 15
30 29 29 30 30 29 29 28 28 29 29 28 28 27 26 25 25 24 23 22 21 21 20 19 19 18 18 17 17 16 16 16 15 15 15 15 15 15 15 15 15 15 14 14
29 29 30 29 29 29 29 28 28 28 28 28 28 26 25 24 24 23 22 22 21 20 20 19 19 18 18 17 17 16 16 15 15 15 15 15 15 15 15 15 15 14 14 14
29 30 29 29 29 29 28 29 28 28 28 27 27 25 24 24 23 23 22 22 21 20 20 19 19 18 18 17 17 16 15 15 15 14 14 14 14 14 14 14 14 14 14 14
29 30 29 29 28 28 28 29 28 28 28 27 27 25 23 23 22 22 22 21 21 20 19 19 18 18 17 17 16 16 15 15 14 14 14 14 14 14 14 14 14 14 14 14
30 30 30 29 29 29 29 29 28 29 27 25 26 25 22 22 22 22 22 21 20 20 19 19 18 17 17 17 16 16 15 15 14 14 14 14 14 14 14 14 14 14 14 14
29 29 30 29 28 29 28 27 26 25 25 24 25 24 21 22 23 22 21 21 20 20 19 18 18 17 16 16 16 15 15 14 14 14 14 14 13 14 14 14 13 14 13 13
27 28 29 29 28 27 27 26 24 23 24 24 25 23 21 23 22 22 21 20 20 19 19 18 17 17 16 16 15 15 14 14 14 14 13 13 13 13 13 13 13 13 13 13
27 27 29 29 29 28 27 26 26 24 24 24 24 22 21 22 22 22 21 20 19 19 18 18 17 17 16 16 15 15 14 14 14 13 13 13 13 13 13 13 13 13 13 13
27 26 28 29 29 29 28 27 25 24 23 23 23 22 20 20 21 21 21 20 19 18 18 17 17 17 16 16 15 15 14 14 14 13 13 13 13 13 13 13 13 13 13 13
27 25 26 28 27 27 26 25 25 24 24 22 21 20 21 20 21 20 20 19 19 18 18 17 17 17 16 16 15 15 14 14 14 13 13 13 13 13 13 13 13 12 13 12
26 25 25 26 28 28 26 25 24 23 22 23 22 20 22 21 21 20 20 19 18 18 17 17 17 16 16 15 15 15 14 14 14 13 13 13 13 13 12 12 12 12 12 12
25 24 23 25 26 26 26 25 25 24 23 22 22 21 22 21 21 20 19 19 18 17 17 17 16 16 16 15 15 14 14 14 14 13 13 13 12 12 12 12 12 12 12 12
24 24 23 23 23 25 25 25 25 24 23 22 22 21 21 21 20 20 19 18 18 17 17 17 16 16 15 15 14 14 14 14 13 13 13 13 12 12 12 12 12 12 12 12
24 23 24 25 25 25 25 25 25 24 24 23 22 22 21 21 20 20 19 18 18 17 17 16 16 15 15 15 14 14 14 14 13 13 13 13 13 13 12 12 12 12 12 12
24 23 23 24 25 25 25 25 25 24 24 23 22 22 22 21 20 20 19 18 18 17 16 16 15 15 14 14 14 14 13 13 13 13 13 13 13 13 13 12 12 12 12 12
24 22 22 23 25 24 23 24 24 23 23 23 21 21 21 21 20 19 19 18 17 16 16 15 15 14 14 14 14 14 13 13 13 13 13 13 13 13 13 12 12 12 12 12
23 22 22 23 23 22 23 25 24 23 23 23 22 21 21 20 20 19 18 17 16 16 15 15 14 14 14 14 14 13 13 13 13 13 13 13 13 13 12 12 12 12 12 12
24 22 22 22 22 22 23 24 24 22 21 22 21 21 21 20 19 19 17 16 16 15 15 14 14 14 14 13 13 13 13 13 13 13 13 13 13 12 12 12 12 12 12 12
24 23 22 22 21 21 22 23 23 22 20 21 21 20 20 19 19 18 17 16 16 15 15 14 14 14 14 13 13 13 13 13 13 13 13 13 12 12 12 12 12 12 12 12
22 22 22 22 21 21 22 23 22 20 19 20 20 19 19 18 18 17 16 16 15 15 14 14 14 14 13 13 13 13 13 13 13 13 13 12 12 12 12 12 12 12 12 12
23 22 22 22 21 20 22 22 21 19 19 19 19 19 18 18 17 17 16 16 15 15 14 14 14 13 13 13 13 13 13 12 12 12 12 12 12 12 12 12 12 12 12 12
23 22 22 21 21 21 21 21 20 19 19 19 19 18 18 17 17 16 16 15 15 15 14 14 13 13 13 13 13 13 13 12 12 12 12 12 12 12 12 12 12 12 12 12
23 23 22 21 21 21 21 20 20 19 19 19 18 18 17 17 17 16 16 15 15 14 14 14 13 13 13 13 13 13 12 12 12 12 12 12 12 12 12 12 12 12 12 12
22 22 21 20 20 20 20 19 19 19 19 18 18 18 17 17 16 16 15 15 14 14 14 14 13 13 13 13 13 13 12 12 12 12 12 12 13 13 13 13 13 13 13 12
22 21 20 20 20 20 19 19 19 19 18 18 18 17 17 16 16 16 15 15 14 14 14 13 13 13 13 13 13 13 13 13 12 12 12 13 13 13 13 13 13 13 13 13
Wind_Speed
10 8 6 6 7 7 10 10 9 5 0 3 3 3 6 6 5 5 5 5 5 5 5 5 4 4 4 3 2 2 2 2 1 1 2 2 3 2 2 1 0 1 2 2
7 4 5 8 8 7 9 10 9 8 5 6 4 3 4 5 4 4 5 5 5 4 4 4 3 3 3 3 2 2 3 2 2 2 2 2 3 3 2 2 1 1 2 2
5 4 5 9 10 8 8 9 9 9 8 9 6 4 4 5 4 4 3 4 4 2 3 3 3 3 4 3 3 3 2 1 2 3 2 3 3 3 2 2 1 2 2 2
5 4 5 8 8 9 9 9 10 11 11 9 6 5 5 6 5 3 2 2 2 3 3 3 4 4 4 4 4 3 2 1 1 2 3 4 3 4 4 3 1 1 2 2
6 5 6 7 7 8 10 11 12 14 13 12 8 4 3 6 3 2 2 2 2 2 2 3 4 4 5 5 4 3 2 1 1 2 2 3 3 4 3 3 2 2 2 2
6 4 4 5 7 7 9 12 13 12 8 8 5 3 2 3 1 3 2 3 4 4 3 4 5 5 5 5 4 3 3 2 2 2 3 3 4 4 4 4 4 2 2 1
6 2 1 4 8 7 9 9 7 6 4 4 4 1 5 5 5 6 5 4 4 5 5 5 5 5 4 5 5 4 3 3 3 3 3 3 4 5 4 4 3 3 2 1
9 5 4 5 6 8 8 7 6 7 7 7 5 3 6 7 8 7 7 6 6 6 5 4 4 4 5 5 5 4 3 4 3 3 3 3 4 4 3 3 4 3 2 2
8 7 7 6 6 6 7 7 7 7 10 8 2 4 6 7 6 6 7 7 6 6 5 5 4 4 4 3 3 4 3 4 4 4 3 3 3 3 3 4 4 3 2 2
8 10 9 7 6 4 6 7 6 5 5 5 3 2 3 4 5 6 6 6 6 6 6 6 5 3 2 2 2 2 3 4 4 3 3 3 3 3 2 3 4 3 3 3
9 7 9 8 5 6 5 5 5 6 6 5 5 3 3 3 5 6 6 6 7 6 6 5 4 4 2 3 3 2 3 3 3 3 3 3 3 3 3 3 3 3 3 4
7 6 9 9 5 4 3 4 5 5 6 6 5 2 4 5 5 6 7 7 7 7 7 6 5 5 4 4 4 4 4 4 3 3 3 3 3 3 3 3 3 3 3 4
7 5 7 4 1 3 5 5 5 5 4 5 5 1 3 3 5 6 6 6 5 6 7 7 6 5 5 5 6 6 5 5 5 5 4 4 3 4 3 3 3 3 3 3
3 5 6 7 7 8 8 7 6 4 4 4 5 4 3 6 7 6 6 6 6 6 6 7 7 6 6 6 6 6 6 5 5 4 3 3 3 3 3 2 3 3 3 3
3 6 8 8 8 8 8 7 6 5 5 5 5 5 5 6 6 6 6 6 7 8 7 8 7 6 6 6 6 6 6 6 5 5 3 3 3 2 2 2 2 3 3 4
2 6 9 10 8 7 6 6 6 5 4 4 5 5 6 6 6 7 6 6 7 7 8 8 7 7 7 6 7 6 6 6 5 5 4 4 3 3 2 2 3 4 4 4
5 6 9 9 8 7 6 5 4 3 4 4 5 5 5 6 6 6 6 6 6 7 7 7 7 6 6 6 6 6 6 5 5 4 4 4 3 3 2 3 4 4 4 4
6 7 7 9 8 6 1 4 3 3 4 5 5 5 5 5 5 4 5 6 6 6 7 7 6 6 5 5 5 5 5 4 4 4 4 5 4 4 3 3 3 3 3 3
4 5 6 6 6 3 3 4 3 3 3 6 6 6 6 6 4 2 5 6 5 5 5 5 5 5 5 5 5 5 5 4 5 5 5 5 4 4 4 4 4 3 3 3
3 4 6 7 8 5 2 4 4 2 0 6 7 7 7 7 6 5 7 5 5 4 4 4 5 5 5 4 4 5 5 5 5 5 5 4 4 4 3 3 3 3 3 3
4 6 7 8 8 3 3 5 4 2 3 7 7 8 8 7 5 4 5 5 3 3 3 4 5 5 4 4 4 4 4 4 5 4 4 4 3 3 2 2 2 2 3 2
6 6 6 6 7 3 6 4 4 3 4 6 7 7 7 6 5 4 4 4 4 4 3 4 4 4 4 3 4 4 4 4 4 4 4 4 4 4 3 3 2 2 3 3
4 4 4 4 3 3 4 4 3 2 3 5 6 6 6 6 6 6 4 4 4 4 3 3 3 4 3 3 3 3 3 3 4 3 3 3 3 3 2 2 2 2 2 2
4 3 4 5 3 3 3 3 3 4 4 5 6 6 6 7 6 5 4 4 4 3 2 3 3 4 4 3 2 2 3 3 3 4 3 3 2 2 1 1 2 2 2 2
8 6 6 6 4 5 3 5 6 5 5 6 6 6 6 7 6 5 4 4 4 3 2 2 3 4 4 4 3 2 2 2 3 3 3 3 3 2 1 1 2 2 2 1
7 6 6 5 3 4 4 5 7 7 6 6 6 7 7 6 6 6 5 3 3 3 3 3 3 4 5 4 3 3 3 2 2 3 4 4 3 2 2 1 1 2 1 1
Wind_Direction
245 250 285 299 291 303 306 300 302 297 268 254 226 190 171 160 153 142 132 120 106 99 98 87 66 51 58 69 71 65 58 59 2 355 320 310 302 302 296 267 292 312 304 302
263 276 311 314 315 306 300 306 314 320 327 290 257 203 177 142 147 122 116 106 88 83 72 64 62 55 50 53 55 68 55 36 0 339 298 286 297 286 273 285 255 257 268 281
308 342 336 311 309 307 306 303 306 308 301 276 259 240 168 151 120 106 90 90 90 67 44 15 3 36 35 38 41 32 43 28 359 331 320 326 303 289 290 291 258 258 264 262
298 312 306 303 315 321 308 315 311 296 287 276 263 265 166 143 132 120 96 64 60 35 13 358 350 12 27 27 31 42 33 22 345 324 329 314 305 306 309 310 301 296 271 264
295 299 299 313 327 318 310 312 297 285 277 275 265 269 133 144 145 112 73 40 22 24 0 355 1 19 25 23 23 29 28 21 342 311 308 300 311 307 311 316 314 286 274 253
301 305 323 341 322 315 315 311 299 283 270 267 292 295 107 126 105 74 52 20 8 355 14 25 16 26 25 15 10 13 12 10 347 318 313 306 310 305 304 305 304 298 285 275
309 293 359 343 322 323 328 325 319 314 293 282 309 1 85 72 68 70 59 33 15 11 29 30 20 16 7 1 1 2 4 349 334 319 318 313 309 299 295 296 302 300 296 300
319 322 0 353 342 325 328 329 320 311 310 308 311 76 93 75 66 54 52 33 18 16 23 21 15 12 6 360 359 353 357 342 331 324 316 304 311 306 311 315 307 302 304 309
331 327 329 336 325 317 325 322 320 299 293 302 0 93 91 51 48 48 39 25 16 10 10 8 10 15 1 350 359 347 346 343 338 337 322 307 320 315 323 316 303 305 304 296
323 312 303 313 304 310 329 336 333 320 311 311 320 23 42 16 18 25 21 20 12 7 9 4 357 1 357 352 11 356 348 339 336 343 326 331 323 308 311 310 317 312 314 323
323 307 304 307 321 339 345 345 336 322 319 317 321 7 49 28 36 21 16 21 12 3 359 0 353 352 8 353 356 348 334 328 338 341 344 330 323 323 316 318 323 323 318 310
341 315 305 303 327 10 13 344 337 324 322 317 317 35 61 50 45 26 22 24 16 3 355 0 4 7 12 0 351 347 343 338 344 349 347 347 344 335 323 325 319 310 310 311
344 324 308 306 338 11 357 347 327 317 303 318 319 352 60 42 42 34 21 14 14 5 358 360 8 9 12 3 357 357 357 353 352 355 355 360 343 334 333 327 318 316 313 316
309 298 298 307 317 332 333 329 335 329 319 328 334 345 0 25 29 26 16 10 8 6 1 2 6 12 15 5 2 356 353 355 352 351 359 350 341 339 332 329 328 324 326 329
313 295 299 299 301 313 317 324 332 335 325 321 341 354 15 35 22 19 13 11 3 359 3 7 5 10 9 5 2 357 353 354 350 342 346 342 342 338 338 338 332 337 345 348
309 298 301 294 291 299 306 315 319 335 344 350 353 8 38 40 27 16 11 4 358 358 357 357 3 7 5 2 354 353 352 351 350 346 348 352 351 346 355 353 1 3 0 353
290 288 292 289 296 299 301 318 332 348 359 359 349 8 17 16 12 5 4 356 357 354 352 353 6 9 360 352 347 343 343 344 344 347 348 356 354 353 9 5 14 8 355 352
277 293 289 285 290 283 348 44 26 0 23 26 18 2 9 12 5 9 22 10 358 355 353 355 357 357 355 349 346 338 336 343 346 349 354 2 8 10 12 14 10 4 352 342
242 270 283 288 288 283 311 1 2 10 14 18 8 356 356 1 341 18 42 14 2 1 358 352 354 350 349 352 349 338 337 350 353 354 3 11 10 6 3 12 4 359 346 338
234 242 259 276 287 293 340 17 13 19 2 19 10 357 348 346 331 354 12 358 355 358 356 351 349 349 352 354 344 337 341 351 356 357 1 4 2 353 355 1 357 352 348 353
245 249 257 271 278 284 30 31 7 333 10 6 2 353 348 350 345 341 346 352 356 347 343 347 346 346 351 344 339 336 343 349 349 355 1 359 352 339 351 5 355 341 342 339
276 280 276 278 276 288 37 23 19 26 9 350 344 344 344 346 344 340 342 345 337 336 341 340 338 337 341 343 339 333 340 337 338 348 349 346 340 333 3 11 340 332 331 332
278 299 304 309 321 37 24 43 42 13 342 331 329 332 334 329 328 335 338 331 329 334 336 324 316 323 333 333 330 323 324 326 331 336 332 323 325 323 333 342 330 334 335 336
285 307 295 289 287 317 337 352 353 348 341 333 335 335 331 326 326 330 329 321 319 317 304 303 310 316 319 320 317 308 311 318 322 321 316 305 298 292 313 323 328 335 341 352
299 292 282 277 287 299 322 335 329 338 330 324 322 321 321 318 317 316 311 301 301 300 299 303 305 304 308 310 304 302 303 307 305 307 302 298 294 280 273 307 336 333 5 31
276 275 268 278 301 298 303 312 318 317 313 310 311 316 317 314 312 307 306 299 291 286 279 276 288 298 306 307 299 286 275 281 286 297 302 298 288 275 244 219 276 2 232 168
Height
1469 1472 1473 1470 1466 1465 1465 1467 1466 1462 1458 1462 1465 1469 1470 1473 1477 1480 1483 1486 1489 1491 1493 1493 1494 1494 1493 1492 1491 1491 1491 1490 1489 1489 1488 1487 1487 1487 1487 1487 1486 1486 1485 1485
1466 1472 1467 1463 1461 1463 1465 1468 1467 1461 1458 1461 1464 1467 1467 1472 1477 1481 1484 1486 1490 1491 1492 1493 1493 1493 1492 1492 1491 1490 1490 1489 1489 1488 1487 1487 1486 1486 1485 1485 1484 1484 1483 1483
1470 1469 1464 1465 1464 1465 1466 1468 1467 1466 1462 1458 1462 1471 1472 1474 1478 1482 1485 1486 1490 1491 1492 1494 1494 1493 1492 1491 1491 1490 1489 1488 1487 1487 1486 1485 1484 1484 1483 1483 1482 1482 1481 1481
1467 1464 1465 1465 1465 1466 1471 1462 1462 1463 1465 1467 1464 1480 1477 1476 1481 1483 1485 1487 1489 1491 1492 1494 1493 1493 1492 1491 1490 1489 1488 1487 1486 1485 1484 1483 1482 1482 1482 1481 1480 1480 1479 1479
1467 1464 1466 1468 1467 1466 1466 1459 1459 1459 1461 1465 1463 1475 1483 1480 1483 1483 1485 1487 1489 1490 1491 1492 1491 1491 1491 1491 1489 1488 1487 1485 1484 1484 1483 1481 1481 1480 1480 1479 1479 1478 1477 1477
1463 1461 1462 1465 1464 1463 1461 1461 1457 1453 1459 1477 1471 1478 1489 1484 1484 1483 1485 1487 1488 1489 1489 1490 1490 1490 1490 1490 1489 1487 1486 1484 1483 1482 1481 1480 1479 1479 1478 1477 1477 1476 1476 1475
1468 1463 1462 1464 1466 1464 1464 1472 1480 1481 1481 1482 1470 1477 1492 1483 1481 1483 1486 1487 1488 1488 1488 1488 1489 1489 1489 1489 1488 1487 1484 1482 1481 1479 1479 1478 1477 1477 1476 1475 1475 1475 1474 1474
1478 1475 1466 1465 1468 1472 1469 1473 1491 1501 1493 1483 1472 1484 1490 1483 1484 1486 1487 1488 1489 1489 1489 1489 1489 1489 1488 1488 1487 1486 1483 1481 1479 1477 1477 1476 1476 1475 1474 1473 1473 1473 1473 1472
1483 1481 1467 1465 1465 1467 1472 1474 1471 1482 1482 1484 1483 1487 1487 1485 1486 1487 1488 1489 1490 1490 1490 1490 1489 1489 1488 1487 1486 1485 1483 1481 1478 1477 1476 1475 1474 1473 1472 1472 1472 1471 1471 1471
1480 1485 1471 1465 1465 1464 1467 1470 1475 1484 1495 1498 1492 1492 1495 1492 1489 1487 1488 1489 1490 1490 1490 1489 1489 1488 1487 1487 1486 1485 1482 1480 1478 1477 1475 1474 1473 1472 1471 1470 1470 1470 1469 1469
1480 1487 1479 1470 1471 1472 1473 1477 1479 1481 1483 1497 1504 1504 1491 1491 1489 1489 1490 1490 1491 1490 1490 1489 1488 1487 1486 1486 1485 1483 1481 1479 1478 1476 1474 1473 1471 1470 1470 1469 1468 1468 1468 1467
1483 1486 1487 1476 1468 1467 1472 1477 1481 1493 1494 1489 1496 1505 1488 1490 1490 1490 1491 1492 1492 1491 1491 1489 1488 1486 1486 1485 1484 1483 1481 1479 1477 1476 1473 1472 1471 1470 1469 1468 1467 1467 1466 1466
1489 1493 1497 1486 1481 1474 1475 1476 1477 1480 1485 1492 1498 1503 1488 1489 1489 1491 1492 1492 1492 1492 1490 1489 1488 1487 1486 1485 1483 1482 1480 1479 1477 1475 1473 1472 1471 1469 1468 1468 1467 1466 1466 1465
1492 1493 1499 1503 1494 1482 1481 1478 1476 1481 1489 1493 1494 1494 1489 1488 1490 1491 1492 1493 1492 1492 1490 1489 1488 1487 1486 1485 1483 1482 1480 1478 1477 1475 1473 1472 1470 1469 1468 1467 1467 1466 1465 1464
1492 1494 1490 1486 1481 1479 1480 1480 1478 1481 1483 1490 1490 1491 1490 1490 1491 1492 1493 1493 1493 1492 1491 1490 1489 1488 1486 1485 1483 1482 1480 1478 1476 1475 1473 1471 1470 1469 1468 1467 1466 1465 1464 1463
1492 1496 1492 1489 1480 1479 1480 1479 1479 1480 1482 1485 1488 1490 1489 1491 1492 1493 1493 1493 1493 1492 1491 1491 1490 1488 1487 1485 1483 1482 1480 1479 1477 1475 1474 1472 1470 1469 1468 1467 1466 1465 1463 1463
1492 1496 1496 1493 1481 1481 1488 1480 1480 1482 1483 1486 1491 1492 1490 1491 1493 1494 1494 1494 1494 1493 1492 1491 1490 1489 1487 1485 1483 1481 1480 1478 1476 1475 1474 1472 1471 1469 1468 1467 1466 1465 1464 1462
1493 1495 1495 1491 1489 1501 1487 1477 1479 1483 1484 1485 1487 1489 1490 1492 1494 1494 1494 1495 1494 1493 1492 1491 1489 1488 1487 1485 1484 1482 1480 1478 1477 1476 1474 1472 1471 1469 1468 1467 1466 1465 1463 1462
1488 1493 1496 1495 1494 1493 1485 1479 1480 1485 1489 1488 1489 1490 1491 1492 1493 1493 1494 1494 1494 1493 1492 1490 1489 1488 1487 1485 1483 1481 1480 1479 1477 1476 1474 1473 1472 1470 1469 1468 1466 1465 1464 1462
1486 1489 1495 1494 1499 1501 1491 1482 1482 1485 1493 1491 1492 1492 1492 1492 1493 1494 1494 1494 1493 1492 1491 1490 1489 1487 1486 1484 1483 1481 1480 1479 1477 1476 1474 1473 1471 1470 1469 1468 1467 1465 1464 1462
1491 1491 1493 1494 1495 1493 1486 1485 1485 1495 1500 1494 1494 1494 1494 1494 1495 1495 1494 1493 1492 1491 1490 1489 1488 1487 1485 1484 1482 1481 1480 1478 1477 1476 1474 1473 1472 1471 1469 1468 1467 1466 1464 1462
1489 1491 1491 1491 1496 1498 1488 1488 1492 1497 1495 1495 1495 1495 1495 1495 1494 1493 1493 1492 1491 1490 1489 1488 1487 1486 1484 1483 1482 1480 1479 1478 1477 1476 1474 1473 1472 1471 1470 1468 1467 1465 1464 1463
1485 1488 1489 1492 1494 1491 1490 1491 1494 1495 1495 1495 1495 1494 1494 1494 1493 1492 1492 1491 1490 1489 1488 1487 1486 1485 1483 1482 1481 1479 1478 1477 1476 1475 1474 1473 1472 1471 1470 1469 1467 1466 1464 1463
1483 1484 1487 1489 1488 1490 1491 1491 1493 1494 1494 1494 1494 1494 1493 1492 1492 1491 1490 1489 1488 1487 1486 1485 1484 1483 1482 1481 1480 1479 1478 1477 1475 1474 1473 1472 1471 1470 1469 1468 1467 1466 1464 1463
1486 1486 1487 1489 1489 1490 1490 1492 1492 1492 1493 1493 1493 1492 1492 1491 1490 1489 1488 1488 1486 1486 1485 1484 1483 1482 1481 1480 1479 1478 1477 1476 1475 1474 1472 1471 1470 1470 1468 1467 1466 1465 1464 1463
1486 1486 1488 1489 1489 1491 1492 1492 1492 1492 1492 1491 1491 1490 1490 1489 1488 1487 1487 1485 1484 1484 1483 1482 1482 1481 1480 1479 1478 1477 1476 1475 1474 1473 1472 1471 1470 1469 1468 1466 1465 1464 1463 1462